Location: Poigny-la-Forêt
(48.6876°N, 1.7701°E)
Time: 19:31:25
(UTC+02:00)

ISS - Pass Details

Date: 28 May 2019
Orbit: 408 x 418 km, 51.6° (Epoch: 25 June)

Event Time Altitude Azimuth Distance (km) Brightness Sun altitude
Rises 22:27:58 0° 284° (WNW) 2,354 1.2 -6.6°
Reaches altitude 10° 22:30:06 10° 289° (WNW) 1,493 0.3 -6.8°
Maximum altitude 22:33:23 52° 7° (N) 527 -3.0 -7.2°
Drops below altitude 10° 22:36:41 10° 85° (E) 1,498 -1.3 -7.6°
Enters shadow 22:38:10 - 90° (E) 2,095 -0.6 -7.8°
